Location: Tuttlingen
(47.9853°N, 8.8165°E)
Time: 11:29:17
(UTC+01:00)

ISS - Pass Details

Date: 09 January 2018
Orbit: 402 x 407 km, 51.6° (Epoch: 22 January)

Event Time Altitude Azimuth Distance (km) Brightness Sun altitude
Exits shadow 05:48:36 33° 52° (NE) 704 -2.3 -23.3°
Drops below altitude 10° 05:50:50 10° 81° (E) 1,469 0.0 -22.9°
Sets 05:52:58 0° 88° (E) 2,330 1.4 -22.6°
